Location: Albany
(35.0170°S, 117.8920°E)
Time: 03:59:27
(UTC+08:00)

Vanguard 1 - Pass Details

Date: 28 January 2021
Orbit: 649 x 3833 km, 34.2° (Epoch: 26 February)

Event Time Altitude Azimuth Distance (km) Brightness Sun altitude
Rises 00:38:59 0° 294° (WNW) 4,699 - -36.5°
Reaches altitude 10° 00:42:47 10° 297° (WNW) 3,264 - -36.5°
Maximum altitude 00:49:58 58° 14° (NNE) 998 - -36.3°
Drops below altitude 10° 00:54:40 10° 93° (E) 2,172 - -36.1°
Sets 00:56:45 0° 97° (E) 3,006 - -36.1°
Exits shadow 00:56:51 - 98° (E) 3,050 12.8 -36.0°
